FW2442 Weather Reports


Display with metric or nautical units.
time (UTC)temp
F
wind
direction
speed
MPH
gust
MPH
rain 1hr
in
rain 24hr
in
rain mn
in
humidity
%
barometer
mb
20260510133522 62 339 3.0 6.0 0.00 0.24 0.12 78 1015.3
20260510132526 64 315 6.0 10.0 0.00 0.24 0.12 77 1015.3
20260510130523 63 329 5.0 12.0 0.00 0.24 0.12 78 1015.4
20260510125603 62 339 6.0 12.0 0.00 0.24 0.12 78 1015.6
20260510124522 63 336 5.0 10.0 0.00 0.24 0.12 77 1015.6
20260510123528 62 1 4.0 8.0 0.00 0.24 0.12 80 1015.6
20260510122543 62 342 4.0 7.0 0.00 0.24 0.12 85 1015.9
20260510121542 60 344 3.0 8.0 0.00 0.24 0.12 87 1016.0
20260510120522 60 324 4.0 10.0 0.00 0.24 0.12 88 1016.1
20260510115522 59 322 5.0 11.0 0.00 0.24 0.12 90 1016.3
20260510114523 58 312 6.0 12.0 0.00 0.24 0.12 93 1016.5
20260510113522 57 304 5.0 9.0 0.00 0.24 0.12 95 1016.6
20260510112523 57 305 7.0 12.0 0.00 0.24 0.12 95 1016.6
20260510111523 57 306 8.0 13.0 0.00 0.24 0.12 96 1016.6
20260510110542 56 301 9.0 13.0 0.00 0.24 0.12 96 1016.7
20260510105523 56 296 9.0 14.0 0.00 0.24 0.12 97 1016.7
20260510104523 56 298 8.0 13.0 0.00 0.24 0.12 97 1016.8
20260510103522 56 303 7.0 14.0 0.00 0.24 0.12 97 1016.8
20260510102522 56 302 8.0 13.0 0.00 0.24 0.12 98 1016.9
20260510101543 56 296 9.0 13.0 0.00 0.24 0.12 98 1016.8
20260510100523 56 300 7.0 11.0 0.00 0.24 0.12 98 1016.8
20260510095522 56 296 9.0 16.0 0.00 0.24 0.12 98 1016.8
20260510094523 56 299 8.0 15.0 0.00 0.24 0.12 98 1016.9
20260510093523 56 293 6.0 11.0 0.00 0.24 0.12 99 1016.8
20260510092523 56 301 5.0 9.0 0.00 0.24 0.12 99 1016.8
20260510091603 56 313 7.0 12.0 0.00 0.24 0.12 99 1016.9
20260510090522 55 308 7.0 14.0 0.00 0.24 0.12 99 1016.9
20260510085523 55 305 8.0 14.0 0.01 0.24 0.12 99 1016.9
20260510084542 55 302 7.0 13.0 0.01 0.24 0.12 99 1016.9
20260510083523 55 307 7.0 11.0 0.02 0.24 0.12 99 1016.9
20260510082522 55 303 7.0 11.0 0.02 0.24 0.12 99 1016.8
20260510081522 56 321 3.0 8.0 0.02 0.24 0.12 99 1016.8
20260510080542 55 299 4.0 9.0 0.02 0.24 0.12 99 1016.9
20260510075522 55 293 4.0 9.0 0.02 0.23 0.11 99 1016.8
20260510074523 55 300 8.0 14.0 0.02 0.23 0.11 99 1016.8
20260510073522 55 305 6.0 14.0 0.02 0.22 0.10 99 1016.8
20260510072522 55 299 6.0 15.0 0.02 0.22 0.10 99 1016.8
20260510071523 55 298 7.0 16.0 0.03 0.22 0.10 99 1016.7
20260510070523 55 311 8.0 13.0 0.03 0.22 0.10 99 1016.8
20260510065522 55 310 9.0 15.0 0.03 0.21 0.09 99 1016.8
20260510064523 55 314 10.0 16.0 0.03 0.21 0.09 99 1016.8
20260510063542 55 307 11.0 16.0 0.02 0.20 0.08 99 1016.8
20260510062523 55 303 8.0 16.0 0.02 0.20 0.08 99 1016.8
20260510061523 55 309 10.0 16.0 0.01 0.19 0.07 99 1016.7
20260510060523 55 303 8.0 17.0 0.01 0.19 0.07 99 1016.7
20260510055523 55 310 9.0 17.0 0.00 0.18 0.06 99 1016.6
20260510054603 55 312 8.0 16.0 0.00 0.18 0.06 99 1016.6
20260510053603 54 312 9.0 17.0 0.00 0.18 0.06 99 1016.6
20260510052523 55 318 8.0 13.0 0.01 0.18 0.06 99 1016.6
20260510051522 55 302 7.0 14.0 0.01 0.18 0.06 99 1016.5
20260510050548 55 299 10.0 15.0 0.01 0.18 0.06 99 1016.5
20260510045521 55 300 7.0 15.0 0.01 0.18 0.06 99 1016.5
20260510044523 55 307 7.0 14.0 0.01 0.18 0.06 99 1016.4
20260510043521 55 313 3.0 8.0 0.01 0.18 0.06 99 1016.3
20260510042548 55 326 3.0 6.0 0.00 0.17 0.05 99 1016.3
20260510041523 55 328 3.0 7.0 0.01 0.17 0.05 99 1016.3
20260510040525 55 316 4.0 9.0 0.01 0.17 0.05 99 1016.2
20260510035523 55 327 3.0 9.0 0.01 0.17 0.05 100 1016.2
20260510034523 55 333 4.0 11.0 0.02 0.17 0.05 100 1016.2
20260510033523 55 330 3.0 5.0 0.02 0.17 0.05 99 1016.1
20260510032523 55 333 2.0 8.0 0.03 0.17 0.05 99 1016.0
20260510031523 55 337 2.0 3.0 0.02 0.16 0.04 99 1016.1
20260510030523 55 6 3.0 7.0 0.02 0.17 0.04 99 1016.1
20260510025524 55 335 3.0 10.0 0.03 0.17 0.04 99 1016.1
20260510024522 55 334 2.0 3.0 0.02 0.16 0.03 99 1016.0
20260510023543 55 352 3.0 6.0 0.02 0.16 0.03 99 1016.0
20260510022543 55 324 2.0 6.0 0.01 0.15 0.02 99 1016.0
20260510021523 55 337 3.0 6.0 0.01 0.15 0.02 99 1016.0
20260510020523 55 54 2.0 6.0 0.01 0.15 0.02 99 1016.0
20260510015530 56 342 2.0 6.0 0.00 0.14 0.01 99 1016.0
20260510014537 56 340 2.0 9.0 0.00 0.14 0.01 99 1016.1
20260510013523 56 342 3.0 5.0 0.00 0.14 0.01 99 1016.1
20260510012544 56 348 2.0 7.0 0.00 0.14 0.01 99 1016.1
20260510011523 56 341 2.0 7.0 0.00 0.14 0.01 99 1016.2
20260510010524 56 336 2.0 3.0 0.00 0.14 0.01 99 1016.2
20260510005523 56 330 2.0 3.0 0.00 0.14 0.01 99 1016.2
20260510004523 56 334 2.0 4.0 0.00 0.14 0.01 99 1016.2
20260510003520 56 351 2.0 2.0 0.00 0.14 0.01 99 1016.2
20260510002543 56 349 3.0 6.0 0.00 0.14 0.01 99 1016.3
20260510001524 56 345 2.0 6.0 0.00 0.14 0.01 99 1016.2
20260510000543 56 352 2.0 7.0 0.00 0.14 0.01 99 1016.3
20260509235523 56 341 3.0 6.0 0.00 0.14 0.01 99 1016.4
20260509234523 56 355 4.0 8.0 0.00 0.14 0.01 99 1016.4
20260509233523 56 341 3.0 7.0 0.00 0.14 0.01 99 1016.5
20260509232524 56 356 2.0 5.0 0.00 0.14 0.01 99 1016.6
20260509231540 56 341 2.0 4.0 0.00 0.14 0.01 99 1016.7
20260509230524 56 344 2.0 3.0 0.00 0.14 0.01 99 1016.8
20260509225523 56 333 2.0 5.0 0.00 0.14 0.01 99 1016.8
20260509224523 56 339 3.0 8.0 0.00 0.14 0.01 99 1016.9
20260509223523 56 2 2.0 6.0 0.00 0.14 0.01 99 1016.9
20260509222524 56 336 3.0 7.0 0.01 0.14 0.01 99 1017.0
20260509221523 56 354 2.0 8.0 0.01 0.14 0.01 99 1017.1
20260509220603 56 11 2.0 5.0 0.01 0.14 0.01 98 1017.1
20260509215523 56 350 3.0 6.0 0.01 0.14 0.01 98 1017.2
20260509214522 57 341 2.0 7.0 0.01 0.14 0.01 98 1017.2
20260509213543 57 342 2.0 4.0 0.01 0.14 0.01 98 1017.3
20260509212523 57 339 2.0 5.0 0.00 0.13 0.00 98 1017.2
20260509211558 57 339 2.0 4.0 0.00 0.13 0.00 98 1017.2
20260509210523 57 328 2.0 6.0 0.00 0.13 0.00 98 1017.3
20260509205523 57 336 4.0 7.0 0.00 0.13 0.13 97 1017.2
20260509204523 57 337 3.0 7.0 0.00 0.13 0.13 97 1017.3
20260509203522 57 335 3.0 8.0 0.02 0.13 0.13 97 1017.3
20260509202542 57 328 2.0 5.0 0.06 0.13 0.13 97 1017.2
20260509201521 57 334 2.0 5.0 0.08 0.13 0.13 97 1017.3
20260509200521 57 352 3.0 6.0 0.10 0.13 0.13 97 1017.2
20260509195522 57 343 2.0 4.0 0.11 0.13 0.13 96 1017.2
20260509194522 58 337 4.0 10.0 0.12 0.13 0.13 96 1017.1
20260509193521 58 331 5.0 9.0 0.10 0.11 0.11 96 1017.1
20260509192522 58 328 3.0 6.0 0.06 0.07 0.07 96 1017.1
20260509191541 58 332 2.0 5.0 0.04 0.05 0.05 95 1017.2
20260509190521 58 347 2.0 6.0 0.02 0.03 0.03 95 1017.2
20260509185541 58 351 2.0 2.0 0.01 0.02 0.02 94 1017.1
20260509184520 59 338 2.0 4.0 0.00 0.01 0.01 94 1017.0
20260509183521 59 328 2.0 3.0 0.00 0.01 0.01 94 1016.9
20260509182521 59 332 2.0 4.0 0.00 0.01 0.01 94 1016.8
20260509181540 59 333 2.0 6.0 0.00 0.01 0.01 94 1016.8
20260509180521 60 333 2.0 2.0 0.00 0.01 0.01 93 1016.7
20260509175541 60 337 2.0 3.0 0.00 0.01 0.01 93 1016.6
20260509174520 60 330 2.0 3.0 0.00 0.01 0.01 93 1016.4
20260509173521 61 345 2.0 3.0 0.00 0.01 0.01 92 1016.4
20260509172520 62 343 2.0 2.0 0.00 0.01 0.01 91 1016.4
20260509171520 63 1 2.0 4.0 0.00 0.01 0.01 91 1016.3
20260509170541 63 355 2.0 3.0 0.00 0.01 0.01 90 1016.2
20260509165520 63 347 1.0 2.0 0.00 0.01 0.01 88 1016.2
20260509164520 63 346 1.0 1.0 0.00 0.01 0.01 87 1016.1
20260509163519 64 343 1.0 4.0 0.00 0.01 0.01 86 1016.1
20260509162519 64 348 1.0 1.0 0.00 0.01 0.01 86 1016.1
20260509161519 64 345 1.0 2.0 0.00 0.01 0.01 86 1016.1
20260509160539 64 8 1.0 1.0 0.00 0.01 0.01 86 1016.1
20260509155519 64 359 1.0 1.0 0.00 0.01 0.01 86 1016.1
20260509154519 64 29 1.0 2.0 0.00 0.01 0.01 85 1016.0
20260509153519 64 25 1.0 2.0 0.00 0.01 0.01 85 1016.1
20260509152539 64 22 1.0 2.0 0.00 0.01 0.01 85 1016.1
20260509151519 64 27 1.0 2.0 0.00 0.01 0.01 84 1016.1
20260509150519 64 12 1.0 2.0 0.00 0.01 0.01 83 1016.2
20260509145519 64 17 1.0 2.0 0.00 0.01 0.01 83 1016.2
20260509144519 64 30 1.0 2.0 0.00 0.01 0.01 83 1016.3
20260509143519 64 38 2.0 3.0 0.00 0.01 0.01 83 1016.3
20260509142518 65 40 2.0 4.0 0.00 0.01 0.01 81 1016.3
20260509141519 65 49 1.0 1.0 0.00 0.01 0.01 82 1016.4
20260509140541 65 31 1.0 1.0 0.00 0.01 0.01 82 1016.4
20260509135518 65 48 1.0 2.0 0.00 0.02 0.01 82 1016.4
20260509134519 65 38 1.0 2.0 0.00 0.03 0.01 83 1016.5